Time,TemperatureF,DewpointF,PressureIn,WindDirection,WindDirectionDegrees,WindSpeedMPH,WindSpeedGustMPH,Humidity,HourlyPrecipIn,Conditions,Clouds,dailyrainin,SolarRadiationWatts/m^2,SoftwareType,DateUTC
2013-02-01 00:00:00,30.8,26.8,30.41,ESE,102,0.0,1.0,85,0.00,,,0.00,0,Wunderground v.1.15,2013-02-01 07:00:00,
2013-02-01 00:05:00,30.8,26.8,30.41,ESE,102,0.0,1.0,85,0.00,,,0.00,0,Wunderground v.1.15,2013-02-01 07:05:00,
2013-02-01 00:15:00,30.7,26.7,30.41,ESE,102,0.0,0.0,85,0.00,,,0.00,0,Wunderground v.1.15,2013-02-01 07:15:00,
2013-02-01 00:25:00,30.7,26.7,30.41,ESE,102,0.0,0.0,85,0.00,,,0.00,0,Wunderground v.1.15,2013-02-01 07:25:00,
2013-02-01 00:35:00,30.6,26.9,30.41,ESE,102,0.0,0.0,86,0.00,,,0.00,0,Wunderground v.1.15,2013-02-01 07:35:00,
2013-02-01 00:45:00,30.3,26.3,30.41,ESE,102,0.0,0.0,85,0.00,,,0.00,0,Wunderground v.1.15,2013-02-01 07:45:00,
2013-02-01 00:50:00,30.1,26.4,30.41,ESE,102,0.0,0.0,86,0.00,,,0.00,0,Wunderground v.1.15,2013-02-01 07:50:00,
2013-02-01 01:00:00,30.0,26.3,30.41,ESE,102,0.0,0.0,86,0.00,,,0.00,0,Wunderground v.1.15,2013-02-01 08:00:00,
2013-02-01 01:10:00,30.0,26.0,30.41,ESE,102,0.0,0.0,85,0.00,,,0.00,0,Wunderground v.1.15,2013-02-01 08:10:00,
2013-02-01 01:20:00,29.9,25.9,30.40,ESE,102,0.0,0.0,85,0.00,,,0.00,0,Wunderground v.1.15,2013-02-01 08:20:00,
2013-02-01 01:30:00,29.9,26.2,30.40,ESE,102,0.0,0.0,86,0.00,,,0.00,0,Wunderground v.1.15,2013-02-01 08:30:00,
2013-02-01 01:40:00,30.0,26.3,30.40,ESE,102,0.0,0.0,86,0.00,,,0.00,0,Wunderground v.1.15,2013-02-01 08:40:00,
2013-02-01 01:45:00,29.9,26.2,30.40,ESE,102,0.0,0.0,86,0.00,,,0.00,0,Wunderground v.1.15,2013-02-01 08:45:00,
2013-02-01 01:55:00,29.9,26.2,30.40,ESE,102,0.0,0.0,86,0.00,,,0.00,0,Wunderground v.1.15,2013-02-01 08:55:00,
2013-02-01 02:00:00,29.8,26.1,30.40,ESE,102,0.0,0.0,86,0.00,,,0.00,0,Wunderground v.1.15,2013-02-01 09:00:00,
2013-02-01 02:10:00,30.1,26.4,30.40,ESE,102,0.0,0.0,86,0.00,,,0.00,0,Wunderground v.1.15,2013-02-01 09:10:00,
2013-02-01 02:20:00,30.2,26.5,30.40,ESE,102,0.0,0.0,86,0.00,,,0.00,0,Wunderground v.1.15,2013-02-01 09:20:00,
2013-02-01 02:30:00,30.1,26.4,30.40,ESE,102,0.0,0.0,86,0.00,,,0.00,0,Wunderground v.1.15,2013-02-01 09:30:00,
2013-02-01 02:40:00,29.9,25.9,30.39,ESE,102,0.0,0.0,85,0.00,,,0.00,0,Wunderground v.1.15,2013-02-01 09:40:00,
2013-02-01 02:45:00,29.8,26.1,30.39,ESE,102,0.0,0.0,86,0.00,,,0.00,0,Wunderground v.1.15,2013-02-01 09:45:00,
2013-02-01 02:50:00,29.8,26.1,30.39,ESE,102,0.0,0.0,86,0.00,,,0.00,0,Wunderground v.1.15,2013-02-01 09:50:00,
2013-02-01 03:00:00,29.9,26.2,30.39,ESE,102,0.0,0.0,86,0.00,,,0.00,0,Wunderground v.1.15,2013-02-01 10:00:00,
2013-02-01 03:05:00,29.9,26.2,30.39,ESE,102,0.0,1.0,86,0.00,,,0.00,0,Wunderground v.1.15,2013-02-01 10:05:00,
2013-02-01 03:15:00,29.7,26.0,30.38,ESE,102,0.0,0.0,86,0.00,,,0.00,0,Wunderground v.1.15,2013-02-01 10:15:00,
2013-02-01 03:25:00,29.6,25.9,30.38,ESE,102,0.0,0.0,86,0.00,,,0.00,0,Wunderground v.1.15,2013-02-01 10:25:00,
2013-02-01 03:35:00,29.3,25.6,30.38,ESE,102,0.0,1.0,86,0.00,,,0.00,0,Wunderground v.1.15,2013-02-01 10:35:00,
2013-02-01 03:40:00,29.3,25.6,30.37,ESE,102,0.0,0.0,86,0.00,,,0.00,0,Wunderground v.1.15,2013-02-01 10:40:00,
2013-02-01 03:50:00,29.5,26.1,30.37,ESE,102,0.0,0.0,87,0.00,,,0.00,0,Wunderground v.1.15,2013-02-01 10:50:00,
2013-02-01 03:55:00,29.3,25.6,30.37,ESE,102,0.0,0.0,86,0.00,,,0.00,0,Wunderground v.1.15,2013-02-01 10:55:00,
2013-02-01 04:05:00,29.1,25.4,30.38,East,101,0.0,1.0,86,0.00,,,0.00,0,Wunderground v.1.15,2013-02-01 11:05:00,
2013-02-01 04:15:00,29.0,25.3,30.38,ESE,102,0.0,1.0,86,0.00,,,0.00,0,Wunderground v.1.15,2013-02-01 11:15:00,
2013-02-01 04:25:00,29.3,25.9,30.38,ESE,102,0.0,2.0,87,0.00,,,0.00,0,Wunderground v.1.15,2013-02-01 11:25:00,
2013-02-01 04:30:00,29.4,26.0,30.37,ESE,108,0.0,1.0,87,0.00,,,0.00,0,Wunderground v.1.15,2013-02-01 11:30:00,
2013-02-01 04:40:00,29.3,26.2,30.37,ESE,108,0.0,1.0,88,0.00,,,0.00,0,Wunderground v.1.15,2013-02-01 11:40:00,
2013-02-01 04:50:00,29.3,26.2,30.37,ESE,108,0.0,1.0,88,0.00,,,0.00,0,Wunderground v.1.15,2013-02-01 11:50:00,
2013-02-01 05:00:00,29.0,25.9,30.36,ESE,108,0.0,1.0,88,0.00,,,0.00,0,Wunderground v.1.15,2013-02-01 12:00:00,
2013-02-01 05:05:00,28.9,25.8,30.37,ESE,108,0.0,1.0,88,0.00,,,0.00,0,Wunderground v.1.15,2013-02-01 12:05:00,
2013-02-01 05:15:00,29.0,25.9,30.37,ESE,108,0.0,1.0,88,0.00,,,0.00,0,Wunderground v.1.15,2013-02-01 12:15:00,
2013-02-01 05:25:00,28.9,25.8,30.36,ESE,108,0.0,1.0,88,0.00,,,0.00,0,Wunderground v.1.15,2013-02-01 12:25:00,
2013-02-01 05:35:00,28.9,25.8,30.37,ESE,108,0.0,1.0,88,0.00,,,0.00,0,Wunderground v.1.15,2013-02-01 12:35:00,
2013-02-01 05:45:00,28.7,25.9,30.37,ESE,108,0.0,1.0,89,0.00,,,0.00,0,Wunderground v.1.15,2013-02-01 12:45:00,
2013-02-01 05:50:00,28.8,26.0,30.37,ESE,108,0.0,1.0,89,0.00,,,0.00,0,Wunderground v.1.15,2013-02-01 12:50:00,
2013-02-01 06:00:00,28.8,26.0,30.37,ESE,108,0.0,1.0,89,0.00,,,0.00,0,Wunderground v.1.15,2013-02-01 13:00:00,
2013-02-01 06:05:00,28.8,25.7,30.37,ESE,108,0.0,1.0,88,0.00,,,0.00,0,Wunderground v.1.15,2013-02-01 13:05:00,
2013-02-01 06:15:00,28.9,26.1,30.37,SSW,201,0.0,2.0,89,0.00,,,0.00,0,Wunderground v.1.15,2013-02-01 13:15:00,
2013-02-01 06:25:00,28.7,25.6,30.38,SSW,201,0.0,2.0,88,0.00,,,0.00,0,Wunderground v.1.15,2013-02-01 13:25:00,
2013-02-01 06:30:00,28.5,25.4,30.38,SSW,201,0.0,0.0,88,0.00,,,0.00,0,Wunderground v.1.15,2013-02-01 13:30:00,
2013-02-01 06:40:00,28.5,25.4,30.38,SSW,201,0.0,0.0,88,0.00,,,0.00,0,Wunderground v.1.15,2013-02-01 13:40:00,
2013-02-01 06:50:00,28.7,25.6,30.39,SSW,200,0.0,0.0,88,0.00,,,0.00,0,Wunderground v.1.15,2013-02-01 13:50:00,
2013-02-01 06:55:00,28.7,25.6,30.39,SSW,201,0.0,0.0,88,0.00,,,0.00,0,Wunderground v.1.15,2013-02-01 13:55:00,
2013-02-01 07:05:00,28.8,26.0,30.39,SSW,201,0.0,0.0,89,0.00,,,0.00,0,Wunderground v.1.15,2013-02-01 14:05:00,
2013-02-01 07:10:00,29.1,26.3,30.38,SSW,200,0.0,0.0,89,0.00,,,0.00,0,Wunderground v.1.15,2013-02-01 14:10:00,
2013-02-01 07:20:00,29.1,26.3,30.39,SSW,200,0.0,0.0,89,0.00,,,0.00,0,Wunderground v.1.15,2013-02-01 14:20:00,
2013-02-01 07:30:00,29.3,26.5,30.39,SSW,200,0.0,0.0,89,0.00,,,0.00,5,Wunderground v.1.15,2013-02-01 14:30:00,
2013-02-01 07:35:00,29.2,26.4,30.39,SSW,200,0.0,0.0,89,0.00,,,0.00,9,Wunderground v.1.15,2013-02-01 14:35:00,
2013-02-01 07:40:00,29.3,26.5,30.38,SSW,200,0.0,1.0,89,0.00,,,0.00,16,Wunderground v.1.15,2013-02-01 14:40:00,
2013-02-01 07:50:00,29.4,26.6,30.38,SSW,200,0.0,0.0,89,0.00,,,0.00,37,Wunderground v.1.15,2013-02-01 14:50:00,
2013-02-01 08:00:00,29.2,26.4,30.38,SSW,201,0.0,0.0,89,0.00,,,0.00,56,Wunderground v.1.15,2013-02-01 15:00:00,
2013-02-01 08:10:00,29.2,26.4,30.38,SSW,200,0.0,0.0,89,0.00,,,0.00,81,Wunderground v.1.15,2013-02-01 15:10:00,
2013-02-01 08:20:00,29.9,27.1,30.39,SSW,204,1.0,3.0,89,0.00,,,0.00,100,Wunderground v.1.15,2013-02-01 15:20:00,
2013-02-01 08:30:00,29.6,26.5,30.39,South,172,2.0,3.0,88,0.00,,,0.00,114,Wunderground v.1.15,2013-02-01 15:30:00,
2013-02-01 08:40:00,29.2,26.4,30.39,South,189,2.0,2.0,89,0.00,,,0.00,137,Wunderground v.1.15,2013-02-01 15:40:00,
2013-02-01 08:50:00,29.2,26.1,30.39,WSW,240,1.0,5.0,88,0.00,,,0.00,158,Wunderground v.1.15,2013-02-01 15:50:00,
2013-02-01 09:00:00,29.9,26.5,30.39,SSW,209,2.0,2.0,87,0.00,,,0.00,142,Wunderground v.1.15,2013-02-01 16:00:00,
2013-02-01 09:05:00,29.8,25.8,30.40,SSW,211,2.0,5.0,85,0.00,,,0.00,160,Wunderground v.1.15,2013-02-01 16:05:00,
2013-02-01 09:15:00,29.9,25.7,30.40,WSW,237,2.0,3.0,84,0.00,,,0.00,153,Wunderground v.1.15,2013-02-01 16:15:00,
2013-02-01 09:20:00,30.1,25.8,30.39,WSW,241,3.0,3.0,84,0.00,,,0.00,142,Wunderground v.1.15,2013-02-01 16:20:00,
2013-02-01 09:30:00,30.2,25.9,30.39,SW,231,2.0,2.0,84,0.00,,,0.00,322,Wunderground v.1.15,2013-02-01 16:30:00,
2013-02-01 09:35:00,30.6,26.1,30.39,SW,231,1.0,2.0,83,0.00,,,0.00,397,Wunderground v.1.15,2013-02-01 16:35:00,
2013-02-01 09:45:00,31.6,26.4,30.39,SW,229,1.0,1.0,81,0.00,,,0.00,387,Wunderground v.1.15,2013-02-01 16:45:00,
2013-02-01 09:55:00,32.0,25.9,30.39,SSE,158,1.0,3.0,78,0.00,,,0.00,443,Wunderground v.1.15,2013-02-01 16:55:00,
2013-02-01 10:00:00,32.4,26.6,30.39,SSE,157,1.0,1.0,79,0.00,,,0.00,483,Wunderground v.1.15,2013-02-01 17:00:00,
2013-02-01 10:10:00,33.6,27.2,30.39,SSE,157,0.0,7.0,77,0.00,,,0.00,475,Wunderground v.1.15,2013-02-01 17:10:00,
2013-02-01 10:20:00,33.8,26.7,30.39,SSW,204,1.0,1.0,75,0.00,,,0.00,480,Wunderground v.1.15,2013-02-01 17:20:00,
2013-02-01 10:25:00,33.9,26.5,30.39,SSW,204,1.0,7.0,74,0.00,,,0.00,475,Wunderground v.1.15,2013-02-01 17:25:00,
2013-02-01 10:35:00,34.6,26.8,30.39,SW,214,1.0,7.0,73,0.00,,,0.00,571,Wunderground v.1.15,2013-02-01 17:35:00,
2013-02-01 10:45:00,34.9,26.4,30.38,SW,219,1.0,7.0,71,0.00,,,0.00,575,Wunderground v.1.15,2013-02-01 17:45:00,
2013-02-01 10:55:00,35.5,26.3,30.38,SW,217,2.0,7.0,69,0.00,,,0.00,608,Wunderground v.1.15,2013-02-01 17:55:00,
2013-02-01 11:00:00,36.1,27.9,30.38,South,187,2.0,7.0,72,0.00,,,0.00,615,Wunderground v.1.15,2013-02-01 18:00:00,
2013-02-01 11:05:00,35.9,26.0,30.38,West,264,2.0,7.0,67,0.00,,,0.00,573,Wunderground v.1.15,2013-02-01 18:05:00,
2013-02-01 11:10:00,35.9,26.4,30.37,WSW,240,2.0,7.0,68,0.00,,,0.00,563,Wunderground v.1.15,2013-02-01 18:10:00,
2013-02-01 11:20:00,36.3,26.4,30.37,SSW,212,2.0,7.0,67,0.00,,,0.00,575,Wunderground v.1.15,2013-02-01 18:20:00,
2013-02-01 11:30:00,36.6,26.7,30.36,WSW,239,2.0,2.0,67,0.00,,,0.00,566,Wunderground v.1.15,2013-02-01 18:30:00,
2013-02-01 11:35:00,37.6,28.0,30.36,WSW,239,1.0,7.0,68,0.00,,,0.00,570,Wunderground v.1.15,2013-02-01 18:35:00,
2013-02-01 11:45:00,38.3,28.3,30.35,SW,215,1.0,2.0,67,0.00,,,0.00,626,Wunderground v.1.15,2013-02-01 18:45:00,
2013-02-01 11:55:00,38.7,28.3,30.35,SW,214,2.0,7.0,66,0.00,,,0.00,613,Wunderground v.1.15,2013-02-01 18:55:00,
2013-02-01 12:00:00,38.9,28.9,30.35,SW,233,4.0,7.0,67,0.00,,,0.00,603,Wunderground v.1.15,2013-02-01 19:00:00,
2013-02-01 12:05:00,38.7,28.7,30.35,SW,229,6.0,7.0,67,0.00,,,0.00,585,Wunderground v.1.15,2013-02-01 19:05:00,
2013-02-01 12:15:00,38.3,27.9,30.34,SW,229,7.0,12.0,66,0.00,,,0.00,612,Wunderground v.1.15,2013-02-01 19:15:00,
2013-02-01 12:25:00,38.5,28.9,30.33,SW,218,8.0,17.0,68,0.00,,,0.00,636,Wunderground v.1.15,2013-02-01 19:25:00,
2013-02-01 12:30:00,38.6,28.9,30.33,SW,226,9.0,9.0,68,0.00,,,0.00,635,Wunderground v.1.15,2013-02-01 19:30:00,
2013-02-01 12:40:00,39.2,28.4,30.33,SW,228,9.0,9.0,65,0.00,,,0.00,633,Wunderground v.1.15,2013-02-01 19:40:00,
2013-02-01 12:50:00,39.8,29.0,30.33,SW,217,7.0,8.0,65,0.00,,,0.00,594,Wunderground v.1.15,2013-02-01 19:50:00,
2013-02-01 12:55:00,40.5,30.0,30.33,SSW,195,6.0,8.0,66,0.00,,,0.00,587,Wunderground v.1.15,2013-02-01 19:55:00,
2013-02-01 13:05:00,39.6,28.4,30.32,SW,215,7.0,10.0,64,0.00,,,0.00,580,Wunderground v.1.15,2013-02-01 20:05:00,
2013-02-01 13:10:00,40.3,29.8,30.32,SSW,203,7.0,7.0,66,0.00,,,0.00,577,Wunderground v.1.15,2013-02-01 20:10:00,
2013-02-01 13:20:00,39.8,29.0,30.32,WSW,243,7.0,12.0,65,0.00,,,0.00,571,Wunderground v.1.15,2013-02-01 20:20:00,
2013-02-01 13:30:00,40.0,29.6,30.32,SSW,198,7.0,7.0,66,0.00,,,0.00,559,Wunderground v.1.15,2013-02-01 20:30:00,
2013-02-01 13:40:00,40.2,28.6,30.32,SSW,208,7.0,7.0,63,0.00,,,0.00,548,Wunderground v.1.15,2013-02-01 20:40:00,
2013-02-01 13:50:00,40.5,28.5,30.32,SSW,203,8.0,14.0,62,0.00,,,0.00,538,Wunderground v.1.15,2013-02-01 20:50:00,
2013-02-01 13:55:00,40.5,29.3,30.32,SSW,204,9.0,14.0,64,0.00,,,0.00,531,Wunderground v.1.15,2013-02-01 20:55:00,
2013-02-01 14:05:00,40.3,27.1,30.32,SSW,211,9.0,12.0,59,0.00,,,0.00,517,Wunderground v.1.15,2013-02-01 21:05:00,
2013-02-01 14:15:00,40.3,27.5,30.32,SSW,212,9.0,12.0,60,0.00,,,0.00,503,Wunderground v.1.15,2013-02-01 21:15:00,
2013-02-01 14:30:00,40.4,28.0,30.32,SW,236,8.0,8.0,61,0.00,,,0.00,475,Wunderground v.1.15,2013-02-01 21:30:00,
2013-02-01 14:40:00,40.5,28.1,30.32,SW,230,7.0,12.0,61,0.00,,,0.00,455,Wunderground v.1.15,2013-02-01 21:40:00,
2013-02-01 14:45:00,40.5,26.9,30.32,SW,231,7.0,12.0,58,0.00,,,0.00,443,Wunderground v.1.15,2013-02-01 21:45:00,
2013-02-01 14:55:00,40.7,27.5,30.32,SW,216,8.0,12.0,59,0.00,,,0.00,422,Wunderground v.1.15,2013-02-01 21:55:00,
2013-02-01 15:00:00,40.9,27.7,30.32,SW,214,8.0,8.0,59,0.00,,,0.00,408,Wunderground v.1.15,2013-02-01 22:00:00,
2013-02-01 15:05:00,41.0,27.8,30.32,SW,222,7.0,10.0,59,0.00,,,0.00,397,Wunderground v.1.15,2013-02-01 22:05:00,
2013-02-01 15:15:00,40.9,27.7,30.32,SW,232,8.0,10.0,59,0.00,,,0.00,373,Wunderground v.1.15,2013-02-01 22:15:00,
2013-02-01 15:20:00,41.1,28.7,30.31,SW,220,7.0,7.0,61,0.00,,,0.00,364,Wunderground v.1.15,2013-02-01 22:20:00,
2013-02-01 15:30:00,41.0,27.3,30.32,SSW,209,6.0,6.0,58,0.00,,,0.00,341,Wunderground v.1.15,2013-02-01 22:30:00,
2013-02-01 15:40:00,40.6,27.8,30.31,SSW,195,6.0,6.0,60,0.00,,,0.00,315,Wunderground v.1.15,2013-02-01 22:40:00,
2013-02-01 15:45:00,40.9,27.7,30.31,SSW,193,5.0,6.0,59,0.00,,,0.00,299,Wunderground v.1.15,2013-02-01 22:45:00,
2013-02-01 15:55:00,40.8,28.8,30.31,SW,229,4.0,8.0,62,0.00,,,0.00,269,Wunderground v.1.15,2013-02-01 22:55:00,
2013-02-01 16:00:00,40.6,28.6,30.31,SSW,201,5.0,5.0,62,0.00,,,0.00,250,Wunderground v.1.15,2013-02-01 23:00:00,
2013-02-01 16:05:00,40.4,28.4,30.31,SW,226,6.0,6.0,62,0.00,,,0.00,232,Wunderground v.1.15,2013-02-01 23:05:00,
2013-02-01 16:15:00,40.3,27.9,30.31,South,183,5.0,7.0,61,0.00,,,0.00,193,Wunderground v.1.15,2013-02-01 23:15:00,
2013-02-01 16:20:00,40.3,27.5,30.31,SSW,199,4.0,4.0,60,0.00,,,0.00,172,Wunderground v.1.15,2013-02-01 23:20:00,
2013-02-01 16:30:00,40.0,28.4,30.31,SW,215,3.0,3.0,63,0.00,,,0.00,26,Wunderground v.1.15,2013-02-01 23:30:00,
2013-02-01 16:40:00,39.3,27.0,30.32,SSW,211,3.0,13.0,61,0.00,,,0.00,25,Wunderground v.1.15,2013-02-01 23:40:00,
2013-02-01 16:50:00,39.3,27.7,30.32,SE,131,3.0,13.0,63,0.00,,,0.00,25,Wunderground v.1.15,2013-02-01 23:50:00,
2013-02-01 16:55:00,39.2,27.7,30.32,SSE,158,3.0,13.0,63,0.00,,,0.00,28,Wunderground v.1.15,2013-02-01 23:55:00,
2013-02-01 17:05:00,39.2,28.0,30.33,SSW,194,2.0,13.0,64,0.00,,,0.00,32,Wunderground v.1.15,2013-02-02 00:05:00,
2013-02-01 17:10:00,39.3,28.1,30.33,SW,228,3.0,13.0,64,0.00,,,0.00,26,Wunderground v.1.15,2013-02-02 00:10:00,
2013-02-01 17:20:00,39.7,28.5,30.33,SW,214,3.0,13.0,64,0.00,,,0.00,21,Wunderground v.1.15,2013-02-02 00:20:00,
2013-02-01 17:30:00,39.6,27.6,30.33,SSW,202,2.0,2.0,62,0.00,,,0.00,9,Wunderground v.1.15,2013-02-02 00:30:00,
2013-02-01 17:35:00,39.2,27.3,30.34,West,265,1.0,13.0,62,0.00,,,0.00,0,Wunderground v.1.15,2013-02-02 00:35:00,
2013-02-01 17:40:00,38.9,27.4,30.34,West,265,0.0,13.0,63,0.00,,,0.00,0,Wunderground v.1.15,2013-02-02 00:40:00,
2013-02-01 17:50:00,38.9,30.3,30.35,West,281,0.0,13.0,71,0.00,,,0.00,0,Wunderground v.1.15,2013-02-02 00:50:00,
2013-02-01 17:55:00,38.7,30.4,30.35,NE,46,1.0,13.0,72,0.00,,,0.00,0,Wunderground v.1.15,2013-02-02 00:55:00,
2013-02-01 18:00:00,38.0,29.4,30.36,NE,46,1.0,13.0,71,0.00,,,0.00,0,Wunderground v.1.15,2013-02-02 01:00:00,
2013-02-01 18:05:00,37.5,29.3,30.36,NE,46,1.0,13.0,72,0.00,,,0.00,0,Wunderground v.1.15,2013-02-02 01:05:00,
2013-02-01 18:15:00,37.5,30.9,30.36,NE,46,0.0,1.0,77,0.00,,,0.00,0,Wunderground v.1.15,2013-02-02 01:15:00,
2013-02-01 18:20:00,37.4,31.2,30.36,NE,46,1.0,2.0,78,0.00,,,0.00,0,Wunderground v.1.15,2013-02-02 01:20:00,
2013-02-01 18:25:00,37.0,30.8,30.37,NE,46,1.0,2.0,78,0.00,,,0.00,0,Wunderground v.1.15,2013-02-02 01:25:00,
2013-02-01 18:35:00,36.7,31.1,30.37,NE,46,1.0,2.0,80,0.00,,,0.00,0,Wunderground v.1.15,2013-02-02 01:35:00,
2013-02-01 18:45:00,36.3,31.0,30.38,NE,46,1.0,1.0,81,0.00,,,0.00,0,Wunderground v.1.15,2013-02-02 01:45:00,
2013-02-01 18:50:00,36.2,31.5,30.38,NE,46,1.0,1.0,83,0.00,,,0.00,0,Wunderground v.1.15,2013-02-02 01:50:00,
2013-02-01 19:00:00,35.7,30.4,30.38,NE,46,0.0,0.0,81,0.00,,,0.00,0,Wunderground v.1.15,2013-02-02 02:00:00,
2013-02-01 19:10:00,35.8,31.4,30.38,NE,46,1.0,1.0,84,0.00,,,0.00,0,Wunderground v.1.15,2013-02-02 02:10:00,
2013-02-01 19:15:00,35.1,30.5,30.38,NE,46,2.0,3.0,83,0.00,,,0.00,0,Wunderground v.1.15,2013-02-02 02:15:00,
2013-02-01 19:25:00,34.7,30.4,30.38,NE,47,2.0,3.0,84,0.00,,,0.00,0,Wunderground v.1.15,2013-02-02 02:25:00,
2013-02-01 19:30:00,35.0,30.9,30.38,NE,50,2.0,3.0,85,0.00,,,0.00,0,Wunderground v.1.15,2013-02-02 02:30:00,
2013-02-01 19:35:00,34.1,29.8,30.38,NE,56,3.0,3.0,84,0.00,,,0.00,0,Wunderground v.1.15,2013-02-02 02:35:00,
2013-02-01 19:45:00,34.2,29.9,30.39,ENE,65,3.0,3.0,84,0.00,,,0.00,0,Wunderground v.1.15,2013-02-02 02:45:00,
2013-02-01 19:55:00,34.2,29.0,30.39,SE,130,2.0,3.0,81,0.00,,,0.00,0,Wunderground v.1.15,2013-02-02 02:55:00,
2013-02-01 20:05:00,34.8,29.6,30.39,SE,130,0.0,3.0,81,0.00,,,0.00,0,Wunderground v.1.15,2013-02-02 03:05:00,
2013-02-01 20:15:00,34.8,29.3,30.39,SE,129,0.0,3.0,80,0.00,,,0.00,0,Wunderground v.1.15,2013-02-02 03:15:00,
2013-02-01 20:25:00,34.8,29.3,30.40,SE,130,0.0,3.0,80,0.00,,,0.00,0,Wunderground v.1.15,2013-02-02 03:25:00,
2013-02-01 20:35:00,34.3,28.5,30.40,SE,129,0.0,3.0,79,0.00,,,0.00,0,Wunderground v.1.15,2013-02-02 03:35:00,
2013-02-01 20:40:00,34.2,28.4,30.40,SE,130,0.0,3.0,79,0.00,,,0.00,0,Wunderground v.1.15,2013-02-02 03:40:00,
2013-02-01 20:50:00,34.5,29.0,30.40,SE,129,0.0,3.0,80,0.00,,,0.00,0,Wunderground v.1.15,2013-02-02 03:50:00,
2013-02-01 21:05:00,34.3,28.8,30.41,SE,130,0.0,3.0,80,0.00,,,0.00,0,Wunderground v.1.15,2013-02-02 04:05:00,
2013-02-01 21:15:00,34.5,29.3,30.41,SE,130,0.0,0.0,81,0.00,,,0.00,0,Wunderground v.1.15,2013-02-02 04:15:00,
2013-02-01 21:25:00,34.2,29.0,30.42,SE,130,0.0,0.0,81,0.00,,,0.00,0,Wunderground v.1.15,2013-02-02 04:25:00,
2013-02-01 21:30:00,34.0,28.8,30.42,SE,129,0.0,0.0,81,0.00,,,0.00,0,Wunderground v.1.15,2013-02-02 04:30:00,
2013-02-01 21:35:00,33.8,28.6,30.42,SE,130,0.0,0.0,81,0.00,,,0.00,0,Wunderground v.1.15,2013-02-02 04:35:00,
2013-02-01 21:40:00,33.9,29.0,30.43,SE,129,0.0,0.0,82,0.00,,,0.00,0,Wunderground v.1.15,2013-02-02 04:40:00,
2013-02-01 21:50:00,33.3,27.8,30.43,SE,130,0.0,0.0,80,0.00,,,0.00,0,Wunderground v.1.15,2013-02-02 04:50:00,
2013-02-01 22:00:00,33.1,27.6,30.43,SE,129,0.0,0.0,80,0.00,,,0.00,0,Wunderground v.1.15,2013-02-02 05:00:00,
2013-02-01 22:05:00,33.2,27.7,30.43,SW,224,0.0,0.0,80,0.00,,,0.00,0,Wunderground v.1.15,2013-02-02 05:05:00,
2013-02-01 22:15:00,33.2,27.7,30.43,SW,224,0.0,0.0,80,0.00,,,0.00,0,Wunderground v.1.15,2013-02-02 05:15:00,
2013-02-01 22:20:00,33.1,27.9,30.43,SW,224,0.0,0.0,81,0.00,,,0.00,0,Wunderground v.1.15,2013-02-02 05:20:00,
2013-02-01 22:30:00,32.8,27.6,30.44,SW,224,0.0,0.0,81,0.00,,,0.00,0,Wunderground v.1.15,2013-02-02 05:30:00,
2013-02-01 22:40:00,32.6,27.7,30.44,SW,224,0.0,0.0,82,0.00,,,0.00,0,Wunderground v.1.15,2013-02-02 05:40:00,
2013-02-01 22:45:00,32.6,27.7,30.44,SW,223,0.0,0.0,82,0.00,,,0.00,0,Wunderground v.1.15,2013-02-02 05:45:00,
2013-02-01 22:55:00,32.3,27.4,30.45,SW,223,0.0,0.0,82,0.00,,,0.00,0,Wunderground v.1.15,2013-02-02 05:55:00,
2013-02-01 23:05:00,32.2,27.3,30.45,SW,224,0.0,0.0,82,0.00,,,0.00,0,Wunderground v.1.15,2013-02-02 06:05:00,
2013-02-01 23:10:00,32.0,27.1,30.45,SW,224,0.0,0.0,82,0.00,,,0.00,0,Wunderground v.1.15,2013-02-02 06:10:00,
2013-02-01 23:15:00,31.7,27.1,30.45,SW,224,0.0,0.0,83,0.00,,,0.00,0,Wunderground v.1.15,2013-02-02 06:15:00,
2013-02-01 23:25:00,31.1,26.5,30.45,SW,224,0.0,0.0,83,0.00,,,0.00,0,Wunderground v.1.15,2013-02-02 06:25:00,
2013-02-01 23:30:00,30.9,26.3,30.45,SW,223,0.0,0.0,83,0.00,,,0.00,0,Wunderground v.1.15,2013-02-02 06:30:00,
2013-02-01 23:40:00,30.6,26.3,30.45,SW,223,0.0,0.0,84,0.00,,,0.00,0,Wunderground v.1.15,2013-02-02 06:40:00,
2013-02-01 23:45:00,30.3,26.0,30.45,SW,224,0.0,0.0,84,0.00,,,0.00,0,Wunderground v.1.15,2013-02-02 06:45:00,
2013-02-01 23:55:00,29.9,25.7,30.45,SW,224,0.0,0.0,84,0.00,,,0.00,0,Wunderground v.1.15,2013-02-02 06:55:00,